W9GWP Weather Reports


Display with metric or nautical units.
time (UTC)temp
F
wind
direction
speed
MPH
gust
MPH
rain 1hr
in
rain 24hr
in
rain mn
in
humidity
%
barometer
mb
20260510161011 58 197 5.0 8.0 0.00 0.00 0.00 37 1048.7
20260510155510 58 278 4.0 6.0 0.00 0.00 0.00 40 1048.6
20260510154008 57 233 2.0 3.0 0.00 0.00 0.00 36 1048.4
20260510152504 56 306 0.0 4.0 0.00 0.00 0.00 41 1048.6
20260510151000 57 172 0.0 3.0 0.00 0.00 0.00 39 1048.3
20260510145454 56 311 0.0 2.0 0.00 0.00 0.00 37 1048.3
20260510143949 55 139 2.0 4.0 0.00 0.00 0.00 39 1048.1
20260510142444 55 90 3.0 5.0 0.00 0.00 0.00 39 1047.9
20260510140941 55 103 0.0 5.0 0.00 0.00 0.00 40 1047.9
20260510135437 55 101 0.0 4.0 0.00 0.00 0.00 42 1047.8
20260510133934 55 90 0.0 2.0 0.00 0.00 0.00 40 1047.7
20260510132429 56 106 1.0 2.0 0.00 0.00 0.00 44 1047.6
20260510130926 55 23 0.0 2.0 0.00 0.00 0.00 44 1047.5
20260510125421 56 180 0.0 1.0 0.00 0.00 0.00 51 1047.3
20260510123917 55 75 0.0 2.0 0.00 0.00 0.00 58 1047.1
20260510122416 51 294 0.0 2.0 0.00 0.00 0.00 69 1047.0
20260510120914 46 26 0.0 1.0 0.00 0.00 0.00 82 1046.9
20260510115414 44 114 0.0 0.0 0.00 0.00 0.00 92 1046.8
20260510113914 41 114 0.0 0.0 0.00 0.00 0.00 94 1046.7
20260510112410 38 180 1.0 1.0 0.00 0.00 0.00 95 1046.4
20260510110909 37 154 0.0 0.0 0.00 0.00 0.00 95 1046.0
20260510105408 36 140 0.0 1.0 0.00 0.00 0.00 94 1045.9
20260510103903 36 140 0.0 0.0 0.00 0.00 0.00 94 1045.5
20260510102404 35 106 0.0 0.0 0.00 0.00 0.00 93 1045.6
20260510100902 36 114 0.0 0.0 0.00 0.00 0.00 93 1045.3
20260510095356 36 114 0.0 0.0 0.00 0.00 0.00 92 1045.5
20260510093853 37 114 0.0 0.0 0.00 0.00 0.00 92 1045.4
20260510092348 37 106 0.0 0.0 0.00 0.00 0.00 92 1045.2
20260510090849 37 106 0.0 0.0 0.00 0.00 0.00 90 1045.1
20260510085348 37 90 0.0 0.0 0.00 0.00 0.00 89 1045.0
20260510083843 38 90 0.0 0.0 0.00 0.00 0.00 88 1044.6
20260510082339 39 106 0.0 2.0 0.00 0.00 0.00 86 1044.5
20260510080836 39 195 0.0 0.0 0.00 0.00 0.00 84 1044.3
20260510075331 40 195 0.0 0.0 0.00 0.00 0.00 83 1044.2
20260510073827 40 126 0.0 0.0 0.00 0.00 0.00 80 1043.7
20260510072322 41 126 0.0 0.0 0.00 0.00 0.00 77 1043.6
20260510070820 42 106 0.0 0.0 0.00 0.00 0.00 75 1043.5
20260510065319 44 0 0.0 1.0 0.00 0.00 0.00 71 1043.5
20260510063814 45 84 0.0 1.0 0.00 0.00 0.00 69 1043.2
20260510062309 45 88 5.0 5.0 0.00 0.00 0.00 67 1043.0
20260510060809 46 65 2.0 4.0 0.00 0.00 0.00 67 1043.1
20260510055308 47 86 7.0 8.0 0.00 0.00 0.00 64 1042.8
20260510053803 48 84 2.0 3.0 0.00 0.00 0.00 63 1042.6
20260510052306 49 71 0.0 5.0 0.00 0.00 0.00 62 1041.9
20260510050759 44 74 0.0 2.0 0.00 0.00 0.00 80 1041.4
20260510045255 45 98 0.0 0.0 0.00 0.00 0.00 79 1041.0
20260510043751 45 98 0.0 0.0 0.00 0.00 0.00 80 1041.0
20260510042247 46 98 0.0 0.0 0.00 0.00 0.00 80 1040.9
20260510040744 46 98 0.0 0.0 0.00 0.00 0.00 78 1040.8
20260510035244 46 98 0.0 0.0 0.00 0.00 0.00 77 1040.6
20260510033740 48 98 0.0 1.0 0.00 0.00 0.00 76 1040.3
20260510032236 48 105 0.0 0.0 0.00 0.00 0.00 74 1040.0
20260510030733 50 105 0.0 0.0 0.00 0.00 0.00 71 1039.8
20260510025231 50 105 0.0 0.0 0.00 0.00 0.00 67 1039.6
20260510023731 53 82 0.0 3.0 0.00 0.00 0.00 61 1039.5
20260510022231 53 114 0.0 0.0 0.00 0.00 0.00 63 1039.1
20260510020730 55 114 0.0 0.0 0.00 0.00 0.00 57 1038.8
20260510015229 57 98 0.0 1.0 0.00 0.00 0.00 53 1038.3
20260510013729 59 0 0.0 1.0 0.00 0.00 0.00 50 1038.0
20260510012226 60 15 0.0 2.0 0.00 0.00 0.00 48 1037.9
20260510010725 61 187 0.0 3.0 0.00 0.00 0.00 47 1037.4
20260510005220 62 255 0.0 4.0 0.00 0.00 0.00 46 1036.9
20260510003719 63 337 2.0 3.0 0.00 0.00 0.00 44 1036.7
20260510002217 64 281 0.0 5.0 0.00 0.00 0.00 45 1036.5
20260510000713 65 183 3.0 8.0 0.00 0.00 0.00 43 1036.4
20260509235210 66 285 3.0 5.0 0.00 0.00 0.00 43 1035.8
20260509233707 67 0 2.0 10.0 0.00 0.00 0.00 40 1035.5
20260509232203 69 250 4.0 6.0 0.00 0.00 0.00 39 1035.4
20260509230700 70 355 1.0 5.0 0.00 0.00 0.00 40 1035.0
20260509225200 69 5 5.0 5.0 0.00 0.00 0.00 39 1034.9
20260509223656 70 286 5.0 8.0 0.00 0.00 0.00 36 1034.5
20260509222151 69 278 0.0 5.0 0.00 0.00 0.00 38 1034.3
20260509220651 70 252 4.0 9.0 0.00 0.00 0.00 37 1034.0
20260509215146 71 256 5.0 18.0 0.00 0.00 0.00 35 1033.9
20260509213643 70 248 10.0 14.0 0.00 0.00 0.00 35 1033.6
20260509212138 70 226 6.0 14.0 0.00 0.00 0.00 35 1033.6
20260509210634 71 264 3.0 15.0 0.00 0.00 0.00 35 1033.1
20260509205132 71 250 8.0 16.0 0.00 0.00 0.00 33 1033.2
20260509203632 71 246 5.0 10.0 0.00 0.00 0.00 36 1033.0
20260509202132 71 251 5.0 11.0 0.00 0.00 0.00 34 1033.1
20260509200632 72 266 8.0 12.0 0.00 0.00 0.00 33 1032.9
20260509195131 72 254 8.0 15.0 0.00 0.00 0.00 31 1032.7
20260509193629 71 231 7.0 23.0 0.00 0.00 0.00 33 1032.8
20260509192129 72 185 2.0 11.0 0.00 0.00 0.00 35 1032.6
20260509190628 71 250 5.0 21.0 0.00 0.00 0.00 36 1032.5
20260509185125 71 292 5.0 12.0 0.00 0.00 0.00 37 1032.5
20260509183622 71 245 4.0 15.0 0.00 0.00 0.00 37 1032.8
20260509182116 68 259 3.0 21.0 0.00 0.00 0.00 37 1032.8
20260509180614 67 267 4.0 11.0 0.00 0.00 0.00 40 1032.7
20260509175109 68 251 7.0 9.0 0.00 0.00 0.00 39 1032.9
20260509173607 68 247 7.0 10.0 0.00 0.00 0.00 40 1032.8
20260509172102 68 270 2.0 7.0 0.00 0.00 0.00 39 1033.0
20260509170556 66 243 4.0 7.0 0.00 0.00 0.00 40 1033.2
20260509165052 66 204 10.0 12.0 0.00 0.00 0.00 40 1033.2
20260509163548 66 227 6.0 14.0 0.00 0.00 0.00 41 1033.3